Вернуться в каталог

LARETS

АктивенНаукаSSO
NORAD 27944·PAYLOAD·🇷🇺 Russia

Запущен Sep 27, 2003 с Plesetsk Cosmodrome

Loading…

Ближайшие Пролёты (ближайшие 24 часа)

TLE

СвежийSource: CelesTrak SupGP

Эпоха: Sep 14, 2026, 00:00 UTC

1 27944C 03042F   26257.00000000  .00000049  00000+0  94356-5 0  2578
2 27944  98.4268  61.1244 0013477 117.8707  22.2134 14.63881254    13

Отслеживайте LARETS в реальном времени с AllMySat

Download on the App Store